Regional Weather Roundup
Issued by NWS

Home | Current Version | Previous Version | Graphics & Text | Print | Product List | Glossary On
Versions: 1 2 3 4 5 6 7 8 9 10 11 12 13 14 15 16 17 18 19 20 21 22 23 24 25 26 27 28 29 30 31 32 33 34 35 36 37 38 39 40 41 42 43 44 45 46 47 48 49 50
342
ASUS43 KOAX 260810
RWRNE

WEATHER ROUNDUP FOR NEBRASKA
NATIONAL WEATHER SERVICE OMAHA NE
300 AM CDT MON JUN 26 2017

NOTES: SATELLITE DATA IS BEING USED TO AUGMENT CLOUD COVER ABOVE
       12000 FEET.
       "FAIR" INDICATES FEW OR NO CLOUDS BELOW 12,000 FEET WITH NO
       SIGNIFICANT WEATHER AND/OR OBSTRUCTIONS TO VISIBILITY.

  * THESE STATIONS DO NOT REPORT WEATHER SUCH AS RAIN...SNOW OR FOG.

NEZ001>004-019>022-054>056-260900-
NEBRASKA PANHANDLE

CITY           SKY/WX    TMP DP  RH WIND       PRES   REMARKS
SCOTTSBLUFF    CLEAR     58  52  80 CALM      30.23S
ALLIANCE       PTCLDY    53  50  89 NE3       30.23S
CHADRON        CLEAR     49  41  74 N3        30.23R
GORDON         PTSUNNY   54  41  60 NE8       30.24R
KIMBALL        CLEAR     56  55  97 SW7       30.28F
SIDNEY         CLEAR     56  53  90 SW8       30.26F
$$

NEZ057>060-069>072-079>082-260900-
SOUTHWEST NEBRASKA

CITY           SKY/WX    TMP DP  RH WIND       PRES   REMARKS
NORTH PLATTE   CLEAR     56  54  93 S5        30.23F
IMPERIAL       CLEAR     57  55  93 SW7       30.24F
LEXINGTON      PTCLDY    58  54  86 SW6       30.25S
MCCOOK         CLOUDY    60  59  96 SW6       30.24F
OGALLALA       CLEAR     55  53  93 W6        30.23S
$$

NEZ005>010-023>029-035>040-094-260900-
NORTH CENTRAL NEBRASKA

CITY           SKY/WX    TMP DP  RH WIND       PRES   REMARKS
VALENTINE      CLEAR     57  40  52 NE9       30.20R
AINSWORTH      CLEAR     58  53  83 NW8       30.19R
BROKEN BOW     CLOUDY    59  52  77 SW7       30.21F
O`NEILL        CLEAR     58  50  75 SW5       30.17S
ORD            MOCLDY    58  49  72 S5        30.19F
THEDFORD       CLEAR     58  54  86 SW6       30.22F
$$

NEZ041-046>049-061>064-073>077-083>087-260900-
SOUTH CENTRAL NEBRASKA

CITY           SKY/WX    TMP DP  RH WIND       PRES   REMARKS
GRAND ISLAND   CLOUDY    62  52  69 SW14      30.22S
AURORA         CLOUDY    61  49  65 SW8       30.21S
HASTINGS       CLOUDY    59  51  75 SW7       30.24F
HEBRON         CLOUDY    58  53  81 SW7       30.21F
HOLDREGE       CLEAR     55  53  92 SW5       30.24S
KEARNEY *      CLOUDY    61  52  72 SW8       30.24S
YORK           CLOUDY    59  50  72 SW7       30.21R
$$

NEZ011>018-030>034-042>045-260900-
NORTHEAST NEBRASKA

CITY           SKY/WX    TMP DP  RH WIND       PRES   REMARKS
NORFOLK        CLOUDY    61  47  59 SW12      30.16S
ALBION         PTCLDY    60  48  64 SW8       30.18F
BLAIR          CLOUDY    61  48  62 NW6       30.19R
FREMONT        CLOUDY    60  46  61 N7        30.18R
TEKAMAH        CLOUDY    60  45  57 E5        30.19R
WAYNE          LGT RAIN  60  46  60 NE15G24   30.20R
$$

NEZ050>053-065>068-078-088>093-260900-
SOUTHEAST NEBRASKA

CITY           SKY/WX    TMP DP  RH WIND       PRES   REMARKS
LINCOLN        CLOUDY    61  51  70 SW9       30.18F
OMAHA EPPLEY   MOCLDY    63  49  60 S6        30.17S
BEATRICE       CLOUDY    58  53  84 CALM      30.20F
FALLS CITY     CLEAR     55  51  86 SW5       30.19S
NEBRASKA CITY  CLEAR     56  53  91 SW10      30.18S
PLATTSMOUTH    CLEAR     57  50  76 SW5       30.18S
$$

NEZ044-045-051>053-067-260900-
OMAHA AREA

CITY           SKY/WX    TMP DP  RH WIND       PRES   REMARKS
OMAHA EPPLEY   MOCLDY    63  49  60 S6        30.17S
BLAIR          CLOUDY    61  48  62 NW6       30.19R
FREMONT        CLOUDY    60  46  61 N7        30.18R
MILLARD        MOCLDY    62  51  67 CALM      30.16F
OFFUTT AFB     PTCLDY    55  50  83 CALM      30.17S
PLATTSMOUTH    CLEAR     57  50  76 SW5       30.18S
WAHOO          CLOUDY    61  47  61 SW8       30.16F
$$




USA.gov is the U.S. government's official web portal to all federal, state and local government web resources and services.